CZ-6A DEB, 60870

Orbit data source: Space-Track

CZ-6A DEB, 60870 is space debris in LEO originally from a launch on Tue, 06 Aug 2024 UTC launched from the Taiyaun Space Center, China (TSC). Debris objects in space refer to the collection of defunct objects orbiting the Earth. Examples of debris include non-operational satellites, rocket bodies, and fragments generated from explosions, collisions, or faulty payload assembly.

Loading next visibility...
Identifier
60870, 2024-140JZ
Orbit
LEO
Country
Flag of CNCN / PRC
Related business
Manufacturer
SAST
Mission
Spacecraft
Bus & Motor
Unknown
Mass
Unknown
Launch date (UTC)
2024-08-06 (2 years ago)
Launch vehicle
Unknown
Launch site
Taiyaun Space Center, China (TSC)
Object type
Payload
Rocket body
Debris
Shape & HBR
Unknown shape, 0.2 m
Radar Cross Section
Medium (>0.1 m² and <1 m²)

Expand to show TLE details & history
Last TLE update: 16 hours ago

TLE from 16 hours ago
0 CZ-6A DEB
1 60870U 24140JZ  26171.18305962  .00000355  00000-0  17429-3 0  9992
2 60870  88.7418 254.6642 0081598 223.3453 136.1297 14.13844612 95187
Epoch: 2026-06-20T04:23Z
TLE epoch observation values (Epoch: 2026-06-20T04:23:36.351Z)
Latitude
-0.00006°
Longitude
-79.63861°
Altitude
892.024 km
Speed
7.384 km/s
True Right ascension
16h 58m 39s
True Declination
0° 00' 00"
Sunlit
Object was in full shadow at epoch
Visualization orbit readout
Latitude
Unknown
Longitude
Unknown
Altitude
Unknown
Speed
Unknown
Apparent Right ascension
Unknown
Apparent Declination
Unknown
Sunlit
N/A
Visualization observer readout
Local Sidereal Time
07:21:59
Azimuth
Unknown
Elevation
Unknown
Doppler factor
Unknown
Orbital elements
Apogee altitude
902.131 km
Perigee altitude
784.282 km
Semi-major axis
7,221.344 km
Eccentricity
0.00816
Inclination
88.7418°
RAAN
254.6642°
Arg. of periapsis
223.3453°
True anomaly
136.77297°
Mean anomaly
136.1297°
Eccentric anomaly
136.45181°
Mean motion
3.53685 °/min
Orbital period
101.79 mins
BSTAR
0.00017429
Loading maneuver chart data...
Computing Atmospheric mass density...
Loading historical data...
Loading historical data...
Loading historical data...
Loading historical data...
Loading historical data...
Loading historical data...
Loading historical data...

Documentation

Showing up to 5 results
|